Location: Quedlinburg
(51.7921°N, 11.1414°E)
Time: 14:00:26
(UTC+02:00)

RS-15 - Pass Details

Date: 13 March 2026
Orbit: 1893 x 2152 km, 64.8° (Epoch: 22 April)

Event Time Altitude Azimuth Distance (km) Brightness Sun altitude
Rises 21:51:20 0° 226° (SW) 5,265 10.3 -31.4°
Reaches altitude 10° 21:54:32 10° 227° (SW) 4,274 9.8 -31.7°
Maximum altitude 22:05:28 80° 315° (NW) 1,953 7.9 -32.9°
Drops below altitude 10° 22:16:52 10° 44° (NE) 4,426 9.9 -34.1°
Sets 22:20:16 0° 46° (NE) 5,460 10.4 -34.4°
